Terminal Aerodrome Forecast
Issued by NWS Shreveport, LA

Home | Current Version | Previous Version | Text Only | Print | Product List | Glossary On
Versions: 1 2 3 4 5 6 7 8 9 10 11 12 13 14 15 16 17 18 19 20
000
FTUS44 KSHV 012300
TAFLFK
TAF
KLFK 012320Z 0200/0224 11005KT P6SM FEW070
     FM020600 15004KT P6SM BKN020
      TEMPO 0208/0212 3SM BR BKN008 OVC015
     FM021400 18008KT P6SM VCSH SCT025
     FM022000 19012G18KT P6SM VCTS BKN040CB=

USA.gov is the U.S. government's official web portal to all federal, state and local government web resources and services.